Wind_Speed
39 39 38 38 39 40 41 43 42 41 40 39 39 39 38 36 35 33 32 33 32 31 31 33 34 34 33 33 33 33 32 32 31 31 31 30 30 29 28 28 27 26 26 27 27 26 25 25 24 24 24 24 24 21 16 16 19 20 21 21 21 20 20 19 14 11 14 15 13 13 16 20 26 26 23 21 19 19 18 17 16 16 16 17 18
40 40 39 39 40 40 40 41 41 40 39 39 39 39 38 37 36 34 33 33 34 34 33 32 34 35 34 34 34 34 33 33 32 32 33 32 32 31 29 29 29 28 28 28 29 29 27 27 27 25 24 24 25 24 21 18 19 22 23 23 24 24 23 22 19 15 16 17 13 10 15 22 24 24 23 21 20 20 20 19 18 17 17 18 19
41 41 39 40 40 40 40 40 40 39 38 39 39 38 38 38 37 35 35 34 34 35 35 33 33 35 36 35 34 35 34 34 34 34 34 34 34 33 32 31 31 31 31 30 31 31 29 29 29 28 26 25 26 27 26 23 22 22 24 25 25 25 25 24 23 19 18 20 18 13 16 22 23 22 22 21 20 21 21 19 19 18 17 17 18
41 41 40 40 40 40 40 40 40 40 39 39 39 38 37 37 37 37 36 35 34 35 36 35 34 34 36 37 36 36 36 36 36 36 36 36 36 35 34 33 33 32 33 33 32 32 32 31 31 30 29 28 27 29 29 28 26 25 25 26 27 27 26 26 26 24 20 20 22 20 18 20 20 20 21 21 20 21 21 19 19 19 17 16 16
40 41 41 41 40 40 40 40 40 41 41 39 39 38 37 36 37 37 37 36 35 35 35 36 36 35 36 37 38 39 38 38 38 38 38 38 37 37 36 35 34 34 34 34 34 34 34 34 33 32 31 30 29 30 31 32 31 29 27 28 29 29 28 27 27 26 23 22 23 23 20 19 19 19 20 22 22 21 20 19 19 18 17 16 15
39 40 41 41 40 41 40 40 40 41 42 41 39 39 38 36 37 38 38 37 36 35 35 36 37 38 38 38 39 40 40 39 39 39 39 38 38 37 37 36 36 35 35 35 36 36 36 36 35 33 33 33 33 32 33 33 34 33 31 30 30 30 30 29 28 27 27 26 24 23 22 21 21 20 21 23 23 23 22 20 19 18 18 17 17
38 39 40 40 40 41 42 42 42 42 42 42 40 39 39 38 38 38 39 38 36 36 36 37 38 39 40 40 40 40 41 41 40 40 39 38 38 38 37 37 36 36 36 36 37 37 37 37 37 36 36 36 36 36 35 35 35 35 34 33 31 31 31 31 30 28 29 28 26 25 24 22 21 22 22 23 24 24 23 22 22 21 20 20 20
37 37 38 39 41 42 43 43 43 42 42 42 41 40 40 39 38 38 38 39 38 38 37 38 39 40 40 41 41 40 40 41 40 40 39 39 38 38 38 37 37 37 36 37 38 39 39 39 39 39 39 39 39 39 38 37 36 35 35 34 32 32 32 31 30 30 29 28 27 27 26 24 22 20 20 23 25 25 25 25 24 24 23 23 24
37 37 37 39 41 42 42 41 42 42 41 41 42 41 40 40 39 38 38 39 40 39 38 38 39 39 40 41 42 41 40 40 41 40 41 40 39 39 38 38 38 37 37 36 37 38 40 40 40 41 41 41 40 40 40 40 38 37 36 35 33 32 33 32 31 30 29 27 27 27 25 25 25 22 21 25 28 28 27 26 24 23 23 23 24
37 37 37 38 40 41 41 40 40 40 40 41 43 42 41 40 39 39 39 40 40 40 39 38 38 39 40 40 40 40 40 40 41 42 42 42 41 39 38 38 38 38 38 37 37 38 39 41 41 42 42 42 41 41 41 41 41 40 39 37 36 35 34 32 32 32 29 27 27 26 24 25 28 28 27 28 29 28 27 27 26 24 21 19 19
37 37 37 37 39 39 40 40 39 40 41 41 42 43 41 40 40 39 39 39 39 39 40 39 38 38 39 40 39 40 41 41 42 43 43 43 42 40 39 38 39 39 39 38 38 39 39 40 41 41 41 42 42 42 42 42 42 42 40 39 39 39 37 35 33 33 31 29 28 28 27 27 30 32 31 29 28 28 29 29 28 26 23 18 16
36 38 37 37 39 39 39 40 39 40 41 41 41 42 42 40 39 39 39 39 39 39 40 40 39 38 38 40 40 40 42 43 43 43 44 45 44 43 40 39 39 39 39 39 39 39 39 39 39 39 40 41 42 42 43 43 43 43 42 41 41 41 41 40 37 36 35 32 30 30 31 30 29 31 33 31 30 31 30 30 30 29 27 23 20
33 37 38 38 39 40 39 39 39 39 41 41 41 40 40 40 39 39 40 39 39 40 40 40 40 38 37 38 40 42 42 44 44 45 45 46 46 45 43 40 39 39 40 40 40 39 39 38 38 38 38 39 41 42 43 43 43 43 43 43 43 43 43 43 42 41 39 37 34 35 36 34 31 33 35 34 33 31 30 31 32 31 29 28 28
32 35 38 38 39 40 40 39 39 39 39 40 39 38 39 40 40 39 39 39 39 39 40 39 40 40 39 38 39 42 42 43 45 46 46 46 47 47 46 42 40 40 40 41 41 40 39 38 37 38 38 39 40 41 42 42 42 43 44 45 45 44 44 44 45 44 42 40 39 39 39 37 36 37 36 35 34 34 33 33 33 32 32 31 31
30 33 37 38 38 40 41 40 39 39 38 38 38 38 38 39 39 39 38 39 40 39 39 39 40 41 41 39 38 40 42 43 45 46 47 47 47 48 47 44 41 39 40 40 41 40 40 39 39 39 39 39 40 40 41 41 41 42 45 46 47 46 45 46 47 47 46 44 44 43 42 40 39 38 36 36 36 36 35 35 34 34 33 30 28
30 32 35 37 38 39 40 40 39 38 37 36 36 37 38 38 39 39 38 37 38 38 38 39 40 40 41 40 39 39 39 40 43 45 46 46 46 47 48 45 41 39 39 39 39 39 39 39 39 39 40 40 40 39 40 40 41 41 43 45 47 46 47 49 49 49 49 48 48 47 44 41 40 39 38 37 37 36 34 32 32 31 29 24 23
29 30 33 37 37 38 39 39 38 38 37 36 36 37 38 38 38 38 37 36 35 36 38 39 39 39 39 39 41 40 38 36 38 41 44 44 45 46 47 45 42 40 40 38 37 38 38 39 40 40 40 40 40 40 39 39 41 42 42 42 43 44 47 49 48 48 50 50 50 49 45 42 40 39 39 38 37 36 33 30 29 29 27 21 18
27 28 30 35 37 36 38 38 38 38 37 37 37 36 36 36 36 36 36 36 35 35 36 36 36 36 37 38 39 40 38 35 34 34 37 41 44 45 45 43 42 41 39 37 37 37 38 39 40 41 41 40 39 39 39 39 41 42 41 40 39 42 46 45 42 44 47 48 49 49 46 44 42 40 39 39 38 37 36 35 32 31 29 24 21
25 25 27 31 35 36 36 38 38 37 38 38 36 35 35 34 34 34 34 34 34 33 31 31 32 33 34 36 37 37 36 35 33 32 31 34 40 44 44 42 41 40 38 36 37 38 39 39 39 41 42 41 39 39 39 41 43 42 41 39 38 41 45 43 41 43 43 44 47 49 48 47 45 42 40 39 38 38 39 39 37 35 33 29 26
26 24 24 27 33 36 36 37 38 37 37 36 34 33 33 32 31 31 32 32 32 31 30 29 29 31 32 33 34 34 33 33 32 32 29 28 33 40 42 42 40 38 37 37 38 39 40 38 37 38 39 39 40 40 40 42 44 44 42 40 41 44 44 42 44 46 45 43 44 47 48 48 45 43 41 40 40 40 41 41 41 40 38 34 31
29 26 25 26 30 34 35 36 37 36 35 34 33 31 31 31 30 30 30 29 29 29 29 29 28 28 29 30 30 31 31 30 30 29 29 27 28 33 40 43 40 37 36 37 38 38 37 36 35 35 35 36 37 40 42 44 44 44 45 46 47 47 44 42 43 46 45 42 40 41 44 45 44 44 43 43 44 44 43 44 44 44 43 39 35
31 30 27 27 29 32 34 34 34 34 33 32 31 29 29 29 29 29 28 28 28 28 29 29 28 27 26 27 28 29 29 29 28 27 27 27 28 30 36 40 40 37 35 36 36 36 34 34 35 36 36 36 36 37 40 43 44 46 48 50 50 48 45 43 42 41 41 40 38 38 40 42 44 46 46 46 47 48 47 47 47 46 46 45 42
29 32 30 30 30 32 33 33 32 32 31 31 30 28 27 28 27 27 28 27 26 27 27 27 27 26 24 24 25 26 27 27 27 27 27 28 30 32 34 36 37 38 37 35 36 35 34 34 35 36 36 36 36 36 37 38 42 46 49 50 50 48 47 45 43 40 38 38 38 39 42 44 45 46 47 50 51 51 51 50 49 48 47 46 46
20 29 30 30 30 31 32 32 32 31 29 29 29 27 26 27 26 27 28 27 26 25 25 26 25 24 23 22 22 22 23 24 25 27 29 30 31 33 34 34 35 37 38 38 38 36 34 34 35 36 36 36 37 38 38 38 40 43 45 47 49 49 48 48 46 42 38 37 39 42 44 44 43 44 47 50 50 50 51 50 49 49 47 45 45
11 20 24 25 27 29 30 30 29 29 28 28 28 27 26 26 25 25 26 26 25 24 22 23 23 22 22 22 21 20 19 19 20 23 27 30 31 31 32 34 35 37 39 40 37 33 32 33 34 36 37 37 38 39 39 40 41 41 42 44 46 50 50 48 45 41 38 39 42 43 44 44 45 46 47 46 45 45 46 44 43 43 43 42 42
6 13 17 19 22 24 26 26 26 26 26 27 27 27 26 25 24 24 25 25 24 23 21 21 21 21 21 20 21 20 18 16 16 17 19 22 25 28 31 34 36 38 40 40 36 31 29 28 28 29 31 31 32 34 36 38 39 41 43 44 46 50 51 48 44 40 39 42 44 44 44 44 44 45 44 43 44 45 44 41 39 38 38 38 38
7 12 14 16 19 22 23 23 23 23 23 24 25 25 24 24 24 24 24 24 23 21 20 20 20 20 20 20 20 19 16 13 11 9 9 11 13 16 20 24 28 30 33 35 35 34 33 31 29 28 27 27 28 30 32 33 35 37 40 42 45 49 50 49 47 43 42 44 45 45 45 42 40 40 41 41 42 44 43 42 38 36 36 35 33
6 11 15 16 18 21 22 22 22 22 20 19 19 21 23 24 24 24 23 23 22 21 21 20 19 18 19 20 19 15 11 10 9 7 6 5 3 3 4 6 10 14 17 21 24 27 30 32 32 33 33 33 34 35 37 38 38 38 39 41 43 46 48 48 47 45 45 46 46 44 42 39 38 39 40 40 41 42 43 42 38 35 34 32 28
3 7 11 14 16 18 20 21 21 20 17 14 13 13 16 19 20 19 19 20 21 21 21 19 16 14 13 12 14 15 13 11 9 7 6 4 2 1 1 2 4 6 9 11 14 16 19 22 24 28 30 32 34 36 39 39 38 39 40 41 42 43 44 44 44 46 48 48 46 41 36 33 33 35 36 37 40 42 42 41 37 34 33 32 29
3 4 6 8 12 15 16 16 18 19 19 19 17 15 12 12 14 14 12 14 18 19 18 16 14 13 13 12 12 13 13 11 8 7 6 4 3 2 3 4 6 7 9 11 13 14 16 17 18 20 22 23 25 28 32 32 32 34 37 39 40 40 41 42 43 45 47 48 47 40 32 30 32 34 35 37 38 38 41 43 42 39 38 36 33
9 8 7 6 10 14 14 13 16 20 22 22 24 25 24 22 20 19 16 14 14 14 15 15 14 13 13 14 14 13 12 11 9 9 7 5 4 2 2 2 4 5 6 7 8 9 11 13 15 17 19 20 22 25 28 29 30 31 33 35 36 37 39 41 44 45 45 46 46 39 34 35 37 37 39 40 39 38 41 43 44 44 44 42 38
13 13 12 11 11 12 12 14 20 23 23 24 27 30 31 29 26 25 24 21 19 18 17 17 16 14 12 12 13 13 13 12 12 11 10 9 7 6 6 6 7 8 8 8 7 6 6 7 10 13 16 18 21 24 26 28 29 31 32 33 34 36 37 41 44 45 44 45 45 42 39 40 41 41 42 44 42 41 41 42 43 43 44 42 40
12 13 14 15 15 15 15 18 23 25 23 23 25 27 29 28 25 26 27 27 25 23 20 17 17 17 16 15 14 15 15 15 14 14 13 12 12 11 11 12 14 15 15 15 14 12 10 9 9 11 14 17 20 22 24 26 28 30 32 33 35 37 38 41 43 44 45 46 46 45 43 42 42 42 43 44 42 40 40 42 44 44 41 38 37
13 14 16 18 20 19 18 19 23 24 24 23 23 23 25 27 27 26 25 25 25 25 24 21 19 19 19 19 19 19 18 17 16 16 15 15 15 14 14 15 17 17 17 16 15 14 13 14 15 16 17 19 21 23 24 26 28 30 32 34 35 37 39 40 40 41 43 45 45 45 46 44 42 41 40 40 41 41 41 42 43 42 39 37 35
17 19 20 21 22 21 20 20 22 24 24 23 23 23 24 26 27 25 23 22 22 22 23 22 19 18 19 20 19 18 18 18 17 16 16 16 16 15 15 17 17 16 16 15 15 15 16 16 17 19 20 22 23 25 26 28 30 31 33 34 35 36 37 38 39 40 41 42 42 44 45 45 44 44 43 42 42 42 42 44 45 44 42 40 37
19 21 22 22 22 22 22 21 22 24 24 23 23 24 24 23 23 23 23 24 23 22 21 20 18 16 17 17 17 17 17 16 15 15 15 15 14 14 15 17 17 16 16 15 15 16 16 16 17 19 21 22 24 25 26 28 30 32 34 36 37 38 38 38 39 40 40 40 42 44 44 45 45 45 42 40 40 41 42 44 46 45 44 43 41
20 21 21 21 21 21 22 22 22 23 25 25 25 24 23 22 23 24 24 24 23 22 19 17 16 16 16 15 15 16 16 15 14 13 13 13 13 14 15 15 14 14 14 14 13 14 15 16 16 18 20 21 23 25 25 26 29 31 33 36 37 38 40 41 42 42 41 41 41 40 40 42 45 44 41 38 38 39 40 41 43 43 43 43 41
18 17 18 19 19 19 20 21 21 22 22 23 24 24 23 23 23 23 24 24 23 22 18 16 16 16 16 14 13 14 14 13 13 12 11 11 12 13 12 11 10 10 11 11 11 12 15 16 18 19 20 21 22 23 23 25 27 29 31 33 35 37 40 42 42 42 41 40 39 39 39 40 40 40 38 36 35 39 44 46 44 42 41 41 40
17 15 15 16 17 16 16 16 18 20 21 21 22 22 22 20 19 20 22 23 22 19 16 14 13 13 12 12 11 12 12 13 12 11 10 10 11 11 9 7 7 8 9 10 11 12 14 16 17 19 20 21 21 21 22 23 25 27 29 29 29 29 31 33 34 36 37 38 37 36 35 36 36 35 36 34 29 28 33 39 42 42 42 40 38
18 16 15 15 16 17 17 18 18 19 19 18 19 19 18 18 19 19 20 22 22 19 14 11 10 9 9 9 9 10 12 12 11 9 8 7 6 6 6 5 7 8 9 10 11 11 12 14 16 18 20 21 21 20 20 20 22 25 27 26 25 24 24 24 24 24 27 31 34 33 32 33 33 32 34 36 31 24 18 18 23 31 37 37 34
22 21 20 19 20 23 25 25 24 24 23 22 21 20 18 17 17 16 17 19 20 18 14 11 11 10 9 9 9 10 10 9 7 5 5 5 5 5 5 6 8 8 8 8 8 8 9 12 15 17 19 20 19 19 19 19 20 23 24 25 24 23 24 28 29 27 22 17 14 13 15 20 19 13 12 17 28 37 34 24 19 20 24 29 33
28 27 26 27 27 27 27 27 27 28 29 27 26 25 25 24 22 20 18 16 14 12 12 13 13 11 9 9 10 9 7 6 5 4 4 4 4 4 4 5 6 7 7 7 6 6 7 10 13 14 16 17 17 17 17 18 18 19 19 20 22 23 26 32 37 39 38 35 31 28 25 16 16 23 25 18 15 28 39 41 38 34 30 30 31
30 28 28 29 29 28 27 26 28 29 29 28 27 27 27 27 26 26 25 25 23 19 15 13 10 8 7 7 6 5 3 2 2 4 4 3 3 2 3 3 4 4 5 5 4 4 6 9 11 12 14 15 15 15 15 16 16 16 17 17 18 20 22 27 33 39 42 42 42 43 44 42 40 44 46 40 32 31 35 39 40 38 34 31 27
29 28 28 28 28 28 28 27 28 28 28 28 28 28 28 27 26 26 25 24 24 24 22 20 17 15 13 13 13 13 13 13 9 2 4 3 0 2 3 4 4 4 4 4 3 4 6 7 8 9 11 13 14 14 14 15 15 16 17 18 18 19 19 20 23 29 35 40 42 43 44 45 45 45 45 41 35 32 31 31 30 31 32 30 26
27 27 27 28 27 27 28 28 27 27 27 27 27 27 27 27 26 26 25 23 22 22 22 21 21 20 19 19 20 20 19 19 19 13 6 2 2 0 2 5 6 6 5 3 2 3 5 6 6 7 8 10 11 11 12 13 14 15 16 17 18 20 21 21 22 25 29 34 36 37 39 42 43 43 41 38 33 29 26 24 23 24 24 24 24
28 28 28 28 27 26 26 27 27 27 27 26 25 24 25 25 24 24 24 23 22 22 21 21 21 21 21 20 21 21 19 19 20 19 16 13 9 4 2 4 6 7 6 4 3 4 5 5 5 6 7 7 8 8 8 9 11 12 13 15 15 17 19 21 24 27 29 31 32 34 35 37 38 37 36 34 31 28 24 22 21 20 17 17 21
30 30 28 28 28 27 26 27 27 27 26 25 24 23 23 23 23 23 24 23 22 21 21 21 20 20 20 20 20 21 20 19 19 19 18 18 16 13 9 6 5 7 7 5 4 6 6 5 4 5 6 7 8 8 7 7 8 8 9 10 11 12 14 17 20 23 24 25 27 29 31 32 32 32 31 29 28 26 24 23 22 21 18 18 21
31 30 29 29 29 28 28 27 27 26 24 23 23 23 23 23 23 23 22 23 23 22 22 22 22 21 21 20 20 20 19 19 19 19 18 18 18 17 15 11 7 6 6 5 5 7 8 6 5 7 7 7 7 8 9 8 8 7 8 8 9 9 10 12 14 16 18 19 21 22 24 25 26 26 25 24 24 24 24 24 23 22 21 21 22
31 31 30 29 28 28 27 27 26 24 23 21 21 22 22 21 22 22 21 22 22 22 22 23 23 23 23 22 21 20 20 20 20 20 19 19 18 17 17 14 10 8 7 6 6 6 6 5 6 7 8 8 8 7 8 8 8 7 6 6 6 7 7 8 9 9 9 12 15 17 18 21 22 22 22 21 21 21 23 23 22 21 21 21 21
31 31 29 28 27 27 27 27 26 25 23 23 22 22 21 20 20 20 19 19 20 20 20 21 22 25 26 25 23 22 22 23 22 22 22 20 19 18 17 16 13 11 10 9 8 6 4 3 2 3 4 6 6 5 5 6 7 7 6 5 5 4 4 6 7 6 6 7 9 11 14 16 17 18 18 17 17 16 16 17 18 18 18 17 17
29 29 28 27 25 24 24 25 25 24 24 24 24 23 23 22 22 22 21 20 19 19 18 19 22 26 28 28 26 26 26 26 26 26 26 24 21 20 19 19 18 16 14 12 9 7 5 5 5 3 1 1 1 1 2 3 5 6 5 4 4 4 3 3 4 4 5 5 6 8 10 12 13 13 13 13 13 13 13 13 13 15 16 17 16
Wind_Direction
204 207 208 208 208 207 206 206 206 206 206 207 207 208 208 208 208 208 207 207 206 207 209 210 209 210 211 211 210 209 208 208 210 211 210 211 213 214 214 211 211 212 213 213 213 213 214 214 216 220 223 228 227 225 228 227 222 221 221 219 217 219 222 220 222 233 230 229 234 236 231 219 212 213 219 226 229 229 232 238 244 243 240 240 244
203 206 208 209 210 210 209 208 208 207 206 206 207 208 208 209 209 208 208 208 208 208 209 209 209 209 209 209 209 208 208 208 209 210 209 210 211 212 213 213 213 213 213 215 214 214 217 216 217 218 221 228 230 227 228 228 224 223 223 224 223 222 223 223 223 227 231 229 229 228 220 213 213 216 220 224 226 225 227 231 235 240 244 246 246
202 205 207 209 210 210 210 210 209 208 207 207 208 208 208 208 208 208 209 209 209 210 210 210 209 208 208 208 208 208 209 210 209 210 211 210 210 210 211 212 213 214 213 214 215 215 216 218 219 218 218 224 230 229 228 229 228 226 224 225 226 225 225 227 225 225 228 229 228 222 212 210 216 221 222 223 224 223 225 230 234 238 243 247 249
201 204 206 209 210 210 210 209 208 208 208 208 209 208 208 208 208 209 210 210 210 211 211 211 211 209 209 208 209 209 210 211 211 211 213 213 212 211 210 211 214 216 215 215 215 215 216 218 220 219 219 221 226 228 229 230 230 229 227 226 227 227 226 227 229 229 229 231 232 230 224 218 218 220 221 221 221 222 226 231 233 236 240 245 249
200 202 205 207 208 210 210 209 208 207 208 209 209 209 209 208 208 209 209 209 210 211 210 210 211 211 210 210 210 211 211 212 212 212 214 215 214 213 212 212 214 217 218 218 216 215 216 219 220 219 218 220 222 224 226 228 228 228 229 228 227 228 228 228 230 230 230 233 234 233 233 232 227 221 219 217 217 222 228 231 230 231 235 241 246
201 202 204 206 207 208 209 209 208 208 208 208 209 209 208 208 208 208 208 209 209 210 211 210 211 212 212 212 212 213 213 213 213 214 214 214 215 215 214 214 214 216 219 220 219 218 218 219 221 220 219 219 220 221 223 224 224 225 227 228 227 226 227 227 229 229 230 232 236 235 233 234 234 231 226 222 220 221 223 225 230 232 232 234 237
202 203 204 205 206 208 208 208 208 208 208 208 208 208 208 208 208 208 208 208 208 209 210 211 212 213 214 214 214 215 214 214 215 214 214 214 215 215 215 215 215 216 218 220 221 221 221 221 222 222 221 220 220 220 221 222 222 223 224 226 226 224 223 225 226 227 228 229 232 234 233 233 233 233 231 228 225 224 222 221 224 228 230 231 232
201 203 204 205 206 208 208 208 209 208 208 207 208 208 208 208 208 208 208 208 209 210 210 212 213 214 215 216 216 216 216 215 215 214 214 214 215 216 216 216 216 216 218 220 222 222 223 223 223 223 224 224 223 222 221 222 222 222 223 224 224 221 220 221 221 223 225 226 227 230 231 231 230 230 227 221 217 219 222 222 223 226 228 230 235
199 202 203 204 206 208 208 208 208 208 207 207 207 208 208 208 208 208 208 208 210 211 211 213 214 214 215 217 217 217 217 216 216 215 215 214 215 216 216 217 217 217 218 220 222 223 224 224 225 225 226 227 227 226 225 224 224 223 222 221 221 221 219 218 218 219 220 222 224 226 227 228 228 225 219 215 214 217 221 222 226 230 230 231 236
198 200 202 204 205 207 208 208 208 207 207 207 207 208 208 208 208 208 209 210 211 212 213 214 215 215 216 216 217 217 218 218 218 217 216 215 215 216 216 217 218 219 219 220 221 223 224 225 226 227 228 228 229 229 228 228 228 227 226 222 220 220 219 217 217 217 217 218 220 221 221 225 226 224 222 221 220 221 221 220 223 227 227 228 233
198 200 202 203 204 205 206 207 207 206 207 207 208 208 207 207 207 208 209 210 211 212 213 214 215 216 216 216 216 217 218 220 219 219 219 218 217 217 217 218 218 219 220 221 222 223 225 226 227 228 229 229 229 230 230 230 230 231 230 228 225 223 220 218 217 217 216 218 220 218 219 223 224 224 225 226 223 222 223 222 221 221 219 217 224
199 200 201 201 202 203 204 205 206 206 207 207 208 208 208 207 207 208 208 209 210 211 213 214 215 215 216 216 217 218 219 221 220 220 220 220 220 219 219 219 219 220 221 222 223 224 224 226 227 228 229 229 229 230 231 232 232 233 233 232 231 230 227 224 222 220 218 218 219 219 220 223 223 222 222 224 223 224 224 223 220 219 217 216 218
200 200 201 201 201 202 202 203 205 206 207 208 209 208 208 208 208 208 208 209 209 211 213 214 215 215 215 215 217 219 221 221 221 221 222 222 222 221 221 221 221 221 222 223 224 224 225 225 226 228 229 230 229 229 230 231 232 233 234 235 234 234 233 230 230 229 225 222 221 223 224 223 223 223 222 222 223 222 221 220 219 218 216 217 221
203 201 201 201 200 200 201 202 204 205 207 207 208 208 208 208 209 209 209 209 210 211 213 214 215 216 216 216 217 219 221 222 222 222 222 223 223 222 222 223 224 224 224 225 225 225 225 225 226 227 229 230 229 228 228 229 230 230 231 233 234 235 234 233 233 233 232 229 227 229 230 227 226 227 225 223 222 221 220 219 218 217 218 223 229
205 202 201 201 200 199 200 201 202 204 206 206 206 207 208 209 210 210 210 211 211 212 213 215 216 217 218 218 219 220 222 223 223 223 223 223 223 223 223 224 225 227 228 228 228 228 228 227 228 229 229 230 230 229 227 227 227 227 228 229 231 233 233 233 233 232 231 232 233 235 235 232 231 230 228 226 226 226 227 227 226 224 223 225 228
206 202 200 201 201 198 198 199 200 203 204 204 205 207 208 210 210 210 211 213 214 214 215 216 218 219 219 220 222 224 224 224 224 224 224 224 223 223 223 225 227 229 231 232 232 232 231 230 230 231 231 232 232 231 229 227 225 225 226 227 229 231 232 234 234 233 232 232 234 236 236 235 234 232 230 229 229 230 231 232 229 223 218 215 215
208 203 200 201 201 199 198 198 199 201 202 202 205 207 208 210 211 211 212 213 215 216 217 219 220 220 221 221 223 226 228 227 227 227 226 224 223 222 222 224 227 230 233 234 235 236 235 234 233 233 234 234 234 233 232 228 226 225 226 227 228 229 232 234 235 235 235 235 236 236 236 236 236 234 232 229 229 228 225 222 220 212 205 204 205
211 206 201 200 201 200 199 198 198 199 200 202 205 206 208 210 211 211 212 214 216 218 220 221 222 223 223 224 225 228 230 231 231 231 228 225 223 222 222 223 227 231 234 236 237 239 239 238 236 236 236 237 236 235 233 230 228 227 226 226 227 229 233 233 234 236 237 236 237 237 236 236 236 235 232 229 227 226 222 218 216 207 202 203 203
217 211 205 201 200 200 199 199 199 199 201 203 205 206 207 209 210 212 213 216 219 221 222 224 225 226 226 228 229 231 232 234 234 235 233 228 225 223 221 222 226 229 232 236 238 240 241 241 240 239 239 239 238 237 236 233 231 230 228 227 227 230 233 233 232 234 236 234 234 234 233 234 234 233 232 228 225 225 224 222 217 208 204 205 202
220 218 212 204 200 200 199 199 199 200 202 203 204 205 206 207 208 210 213 216 219 221 223 225 227 228 229 230 231 232 233 234 235 237 238 234 229 225 222 222 225 228 230 233 237 239 241 242 243 243 242 242 240 239 238 236 234 233 230 228 230 233 235 234 233 234 234 233 232 232 231 231 230 229 228 225 223 224 224 222 219 213 209 206 201
217 216 214 207 201 199 199 199 200 201 202 202 203 204 204 204 205 207 210 213 217 220 223 225 228 230 230 231 232 234 235 236 237 237 238 238 235 229 225 225 226 227 229 233 236 238 241 242 245 246 246 245 244 242 241 240 238 236 234 233 235 238 238 237 236 236 234 234 234 232 231 230 228 226 225 222 219 220 221 220 219 217 213 209 204
213 211 210 206 201 198 198 198 199 199 200 200 199 199 201 202 203 205 207 210 214 218 221 225 229 231 233 233 234 235 236 237 238 239 239 239 238 236 234 232 231 229 230 234 237 239 242 243 246 248 249 248 248 246 244 243 241 239 239 240 241 241 239 239 240 238 235 233 233 232 230 228 225 224 222 220 218 218 218 218 217 217 216 215 213
211 206 204 203 200 198 196 196 196 196 196 197 196 195 197 199 201 203 206 208 212 216 219 223 227 231 233 233 234 236 237 238 239 240 241 241 241 240 241 241 238 233 231 235 239 241 243 245 247 249 250 250 251 250 249 247 245 244 244 244 244 243 242 241 240 238 234 232 231 230 229 227 224 222 220 220 219 218 218 218 217 215 215 216 217
211 203 199 199 198 195 194 193 193 193 193 192 191 192 194 196 199 203 206 208 211 214 217 220 223 228 231 232 232 233 235 236 237 239 241 241 242 242 242 243 243 239 237 239 242 243 244 246 248 250 251 252 253 253 252 250 249 249 249 249 247 245 242 240 238 236 234 231 229 230 230 228 226 224 223 222 222 220 220 219 217 215 213 212 213
210 202 197 195 193 190 189 188 188 189 189 187 188 191 193 195 198 201 204 206 209 212 214 215 218 222 225 227 229 229 231 234 236 237 239 240 240 241 241 242 242 240 238 239 241 242 244 247 250 251 253 254 254 254 253 251 252 252 253 252 250 245 241 240 239 236 232 231 231 232 231 230 228 227 227 226 224 223 222 221 218 215 212 209 209
179 190 190 189 186 182 180 180 181 183 184 186 189 193 194 195 197 200 202 204 208 210 211 211 214 217 218 220 223 225 228 231 232 232 234 236 238 239 240 241 240 238 237 236 237 238 241 245 249 251 254 256 256 255 254 253 254 254 253 253 250 245 242 241 240 237 234 234 235 235 234 233 231 230 228 224 221 220 218 217 215 212 208 204 202
140 162 168 171 173 173 171 172 174 177 180 186 191 194 195 197 198 199 201 203 205 207 208 207 207 208 210 213 217 219 218 212 208 212 222 232 237 241 244 247 247 246 246 246 245 246 246 247 250 252 256 259 261 260 260 259 258 256 254 252 250 247 244 242 241 241 240 239 239 238 238 236 233 229 225 220 218 217 214 212 209 206 203 201 199
102 140 152 154 157 164 168 168 171 176 179 183 188 192 195 198 198 199 201 203 202 202 203 204 204 204 206 210 209 202 188 178 173 169 180 196 205 221 244 256 257 257 259 259 258 258 257 257 257 258 259 259 260 261 261 262 261 260 258 256 253 250 247 244 243 244 244 244 244 242 238 234 229 225 221 217 215 214 211 208 205 201 198 197 195
72 127 148 152 156 161 165 169 173 173 167 157 155 169 185 192 193 193 199 203 204 204 203 202 202 197 190 190 189 175 155 147 148 139 133 128 100 32 316 301 283 269 267 265 264 263 262 262 262 262 261 260 260 260 261 262 263 262 261 259 256 253 249 245 243 244 245 246 246 244 238 233 231 227 221 216 214 211 208 204 199 196 196 195 195
93 118 138 160 172 170 167 171 170 160 149 140 129 122 127 148 161 162 171 187 197 202 200 191 183 177 158 137 140 148 139 127 118 109 99 85 62 12 319 301 289 280 275 272 270 269 270 271 272 272 271 270 269 268 268 268 268 266 265 263 259 256 252 249 247 247 247 247 247 244 237 233 232 226 220 218 214 209 206 201 194 191 193 195 194
89 90 94 130 169 174 173 168 153 143 140 138 130 117 103 100 106 109 113 129 147 157 158 148 141 149 146 126 113 111 109 103 100 93 84 76 67 46 357 324 312 308 303 294 286 285 288 289 289 289 287 284 281 278 278 278 276 273 271 269 264 260 256 253 252 251 251 250 250 245 234 229 227 222 217 216 212 206 202 198 192 189 192 194 193
90 88 91 107 137 155 157 148 138 134 132 131 128 122 110 99 94 93 96 102 108 112 117 118 114 114 118 116 111 106 100 96 93 88 84 80 75 74 78 71 56 40 34 35 37 25 359 330 311 303 298 292 288 286 284 283 281 279 277 274 271 266 260 257 256 255 252 251 251 246 237 230 225 221 218 214 209 202 197 192 190 191 193 193 192
91 87 90 97 107 113 119 128 132 133 131 127 125 124 119 113 106 99 96 97 98 99 101 105 109 110 108 108 108 104 100 95 89 82 80 77 74 73 71 65 56 48 43 42 41 31 13 351 328 314 305 297 293 290 287 285 284 282 280 278 276 273 269 266 263 259 254 252 250 248 243 235 227 222 219 214 208 200 193 189 190 192 193 192 190
85 85 88 92 95 96 103 119 130 132 130 127 125 123 121 121 119 114 108 102 97 95 95 97 103 109 110 108 105 100 96 92 85 79 77 76 75 73 68 61 53 46 39 35 28 15 1 347 333 324 317 310 304 301 297 293 290 287 284 282 280 279 277 274 269 263 258 255 252 250 247 242 232 224 219 214 208 201 193 190 190 191 189 188 186
85 87 91 92 91 90 93 106 122 129 131 130 128 126 126 125 123 120 117 113 107 102 98 95 95 101 106 106 102 98 94 90 84 78 74 74 74 71 64 58 51 43 36 29 20 8 357 346 336 330 324 319 315 311 308 304 300 295 291 288 285 283 281 278 274 269 264 259 254 251 250 246 238 229 220 215 210 202 194 190 189 189 187 184 182
87 88 90 91 91 90 91 98 110 122 128 130 130 130 131 131 128 124 120 117 115 111 103 94 90 94 101 103 98 92 87 82 76 68 62 61 61 60 58 53 45 38 33 26 16 6 357 348 340 334 328 324 321 319 316 313 309 304 299 295 290 285 281 277 275 273 270 266 260 254 251 249 245 237 226 217 210 204 198 192 188 186 184 181 177
88 90 93 95 94 93 94 97 102 110 117 122 125 126 124 122 121 121 120 119 118 114 105 94 86 85 87 89 90 88 81 75 70 63 54 49 50 54 56 51 41 33 28 20 11 0 353 349 344 339 334 330 328 326 323 321 318 313 308 301 294 288 283 278 274 271 269 268 267 262 255 251 248 241 231 220 209 201 197 192 187 183 180 177 172
83 86 94 100 102 101 98 97 99 102 105 109 115 119 117 114 114 117 119 118 117 113 104 89 79 76 74 76 85 90 85 80 78 69 53 40 39 47 53 50 39 29 21 13 4 357 356 356 353 348 342 339 336 335 333 330 328 325 321 314 306 299 293 287 280 273 267 265 266 268 265 261 256 246 234 222 209 199 194 190 183 177 172 170 167
81 83 92 99 102 101 99 99 102 100 97 98 106 114 117 116 114 115 116 117 117 115 107 93 80 77 77 79 89 94 87 78 75 71 58 42 38 44 50 46 33 25 20 15 9 6 6 6 2 357 353 350 348 348 347 345 342 339 335 331 328 323 316 306 293 281 271 264 262 263 265 268 268 258 243 230 218 206 198 189 178 169 164 164 165
85 87 91 93 90 85 85 90 95 94 91 91 96 104 112 118 120 119 120 122 122 120 118 112 104 98 89 80 83 91 88 78 75 75 69 57 48 49 48 34 22 20 19 18 16 16 15 12 8 8 7 5 4 4 3 2 360 355 351 349 349 351 351 345 331 309 289 276 268 264 264 265 268 266 250 228 204 180 171 175 170 164 160 155 150
78 77 78 80 79 76 75 75 75 75 75 74 74 76 82 94 107 113 119 128 135 139 140 133 119 105 88 75 76 84 85 82 87 95 89 76 67 59 41 22 14 14 14 15 18 22 22 17 15 16 18 18 18 17 16 15 13 8 4 3 4 9 19 25 25 21 12 352 322 299 280 261 254 267 271 224 180 155 141 130 119 121 126 125 122
74 71 70 70 71 70 70 68 67 68 67 64 62 61 62 64 67 69 70 80 98 120 135 134 121 105 88 82 86 94 99 105 124 134 113 88 79 68 38 9 2 6 11 14 16 22 24 20 19 23 26 25 23 22 21 20 18 14 13 15 19 26 37 45 49 51 48 44 44 47 50 64 94 89 73 68 104 123 124 121 115 111 108 108 112
77 73 71 71 70 69 68 68 68 67 65 61 58 58 57 57 56 56 55 55 56 62 74 88 93 88 81 76 76 81 85 89 160 168 143 97 67 57 30 4 357 5 13 14 14 23 31 30 29 33 34 32 28 27 28 28 26 22 17 16 22 32 42 51 59 65 67 64 61 60 60 62 68 76 78 75 71 77 92 104 112 116 118 119 124
77 75 73 72 70 68 68 67 67 66 64 61 58 55 53 52 51 50 50 51 51 52 53 54 52 49 46 41 36 34 32 27 23 48 167 168 67 41 37 22 10 12 20 21 23 28 31 32 36 40 41 40 39 37 36 37 39 37 31 24 26 35 42 48 57 68 77 79 78 76 76 75 74 76 81 83 80 78 83 94 105 114 123 131 140
74 73 72 71 70 69 68 66 65 63 62 60 56 53 51 50 48 47 46 46 46 46 44 43 41 37 34 32 30 29 27 25 24 25 25 2 321 293 46 31 21 14 14 15 19 22 24 28 33 34 35 38 40 41 43 46 50 52 48 44 43 48 55 61 66 72 79 84 85 86 88 90 91 92 93 95 97 97 97 104 114 120 129 140 149
71 70 68 68 68 69 68 67 65 63 60 58 56 53 51 49 48 46 45 43 42 41 38 36 34 31 27 25 25 23 20 19 19 18 17 19 22 17 5 13 12 6 3 3 6 8 7 9 14 14 13 18 24 29 40 51 55 57 58 60 62 63 67 73 77 80 84 89 93 96 97 97 100 104 106 108 112 115 119 125 128 128 137 156 164
69 68 67 65 65 65 66 67 66 63 60 58 56 54 53 52 50 48 46 43 42 40 36 33 31 28 24 21 19 19 18 18 18 18 17 21 25 24 18 13 3 350 348 349 354 357 356 348 342 348 351 355 2 8 18 33 43 46 48 56 63 67 72 78 82 84 86 91 97 102 105 106 110 113 115 115 117 123 131 139 143 146 155 170 177
67 68 67 66 64 63 63 64 64 63 61 59 58 57 56 55 53 51 49 46 43 41 38 35 31 28 25 21 17 17 17 18 20 22 21 22 25 24 23 26 21 357 343 335 335 347 356 354 337 332 335 338 346 357 6 14 24 29 31 38 47 53 63 76 85 90 93 96 99 104 109 114 118 121 123 125 129 136 143 149 156 162 168 174 180
67 68 68 68 68 67 66 66 66 65 63 62 62 61 59 58 57 54 52 50 47 45 42 40 36 33 31 27 21 20 22 23 23 23 24 25 27 26 25 27 30 28 29 31 22 11 8 358 337 333 335 335 336 344 355 1 9 15 16 21 32 38 42 52 63 76 92 104 110 115 119 122 126 129 132 134 138 144 149 154 159 164 168 171 177
68 69 69 70 72 74 74 73 72 70 69 68 67 65 62 60 59 57 55 54 52 49 46 44 43 41 38 35 30 28 28 28 27 27 27 27 29 30 29 29 31 36 44 49 49 47 45 33 5 340 327 326 330 339 345 350 357 3 4 7 18 24 30 39 49 59 75 95 112 119 119 120 123 126 130 133 136 140 148 157 163 167 169 168 169
69 69 70 71 74 79 82 82 80 78 76 74 74 73 70 67 66 64 62 59 56 52 49 48 49 48 45 43 41 39 38 36 35 34 34 34 34 34 33 30 30 34 40 44 47 49 50 46 45 49 31 311 314 318 307 321 337 345 346 355 13 28 39 53 69 80 89 99 111 117 117 118 122 126 134 141 146 148 152 158 166 173 178 179 179
Height
757 761 764 766 767 768 769 771 773 776 778 781 783 785 788 790 792 795 797 799 801 803 805 806 808 810 811 813 814 816 817 819 821 822 824 825 826 828 829 831 832 833 834 835 836 837 838 838 839 840 841 842 843 844 845 846 846 846 847 847 848 849 849 849 850 849 850 850 850 850 851 851 851 852 853 854 854 855 855 856 856 856 857 857 857
752 756 760 763 764 765 768 769 771 774 776 778 780 782 784 787 789 792 794 796 797 799 801 802 804 807 808 810 811 812 814 815 817 819 820 822 823 825 826 827 829 830 831 832 833 834 835 836 837 838 839 840 841 842 843 843 844 844 845 845 845 846 847 847 847 848 848 848 848 848 848 849 849 850 850 851 851 852 853 853 854 854 855 855 855
747 752 756 759 761 763 765 767 769 772 773 775 776 778 781 783 786 788 790 792 794 796 798 800 802 803 805 807 808 809 811 812 814 815 816 818 819 821 822 823 825 826 827 829 830 831 832 833 834 835 837 837 838 839 840 841 841 842 842 843 843 844 844 845 845 845 846 846 847 847 847 847 847 847 848 849 849 850 850 851 851 852 852 853 853
743 748 751 754 757 760 762 763 766 768 770 772 773 775 778 780 783 785 787 789 791 792 795 797 799 800 801 803 804 805 807 808 809 811 812 813 815 817 818 820 821 822 823 824 826 827 828 829 830 832 833 834 835 836 837 838 838 839 839 840 841 841 842 843 843 844 844 844 845 845 845 845 845 846 847 847 848 848 848 849 849 850 850 851 851
739 742 746 750 753 756 758 760 762 764 766 768 770 772 775 777 779 781 783 785 787 789 791 794 795 797 798 799 800 801 802 804 805 806 808 809 811 813 814 816 817 818 820 821 822 823 824 825 826 827 829 830 831 832 833 834 835 835 836 837 837 839 840 841 841 842 842 842 842 843 844 844 844 844 845 845 846 846 846 847 847 847 848 848 848
734 738 741 744 748 750 753 755 757 759 761 763 766 769 771 773 775 777 779 781 783 786 788 789 791 792 793 794 795 797 798 800 800 802 804 805 807 809 810 812 813 815 816 817 818 819 820 820 822 823 824 825 826 827 828 829 831 831 832 833 834 835 837 838 839 840 840 840 840 841 841 842 842 842 842 843 843 843 844 845 845 845 846 846 846
730 733 736 739 742 745 747 749 752 754 756 759 762 764 766 769 770 772 775 777 780 781 783 785 786 787 789 790 791 793 794 795 797 798 800 802 804 805 807 808 810 811 812 813 814 815 816 817 817 818 819 820 821 822 823 825 826 827 828 829 831 832 834 835 836 837 837 837 838 838 838 839 839 839 840 841 841 841 841 842 842 842 843 843 843
726 729 732 735 737 739 742 745 747 749 752 755 758 760 762 764 766 768 771 773 775 777 778 780 781 783 785 786 787 789 790 792 793 795 797 799 800 801 803 804 806 807 808 809 810 811 812 812 813 813 814 814 816 817 819 820 822 823 825 827 828 829 830 831 832 833 833 834 834 834 835 836 837 837 838 838 838 838 838 838 839 839 840 840 840
721 724 727 729 732 735 738 741 743 746 749 751 753 755 757 760 762 764 767 768 770 772 774 776 777 778 780 782 783 785 786 787 789 791 793 794 796 797 799 800 801 802 804 805 806 806 807 808 808 808 809 810 811 813 815 817 818 819 821 823 825 826 826 827 828 828 829 830 830 831 832 832 833 834 834 833 833 833 834 835 836 836 837 837 837
715 718 721 724 727 731 734 737 739 742 745 746 748 750 753 756 758 760 762 764 766 768 770 772 773 774 776 777 779 781 782 783 784 786 788 789 792 793 794 796 797 798 799 800 801 802 802 803 803 804 805 806 808 810 811 813 814 815 817 819 820 821 822 823 823 824 825 825 825 827 827 827 827 828 828 828 829 830 831 832 832 833 834 835 834
710 713 716 720 723 726 729 733 735 738 740 742 744 746 749 751 753 756 758 760 762 764 766 767 768 770 771 773 775 776 777 778 780 782 784 786 788 789 790 791 792 793 795 796 796 797 798 799 799 800 802 803 805 806 807 809 810 812 814 815 816 817 817 818 819 819 820 820 820 821 821 820 821 823 824 825 826 827 827 828 829 830 831 831 831
705 709 712 715 719 721 725 728 730 733 735 737 739 742 745 747 749 752 753 755 758 759 761 762 763 765 767 768 770 771 771 773 775 777 780 781 784 785 786 787 788 789 790 791 792 793 794 795 796 797 798 799 801 802 804 805 807 809 811 812 812 812 812 813 814 814 814 815 815 815 815 815 816 817 819 820 821 822 823 824 824 825 826 826 826
702 704 707 711 713 716 720 723 725 728 730 733 736 738 741 743 745 747 749 751 753 754 756 757 759 761 762 763 765 765 766 768 770 773 775 776 779 781 782 783 784 785 786 786 787 788 790 791 793 794 795 796 797 799 800 802 805 807 808 809 809 809 809 810 810 810 810 810 810 809 808 810 811 811 813 815 817 817 818 818 819 820 821 821 821
698 700 703 706 708 712 716 718 721 724 726 729 732 734 737 739 741 743 745 747 749 750 751 753 755 757 758 759 760 760 761 763 765 767 769 772 774 777 778 779 780 781 782 782 783 784 786 788 789 790 791 792 792 794 796 798 801 802 804 804 804 804 805 806 806 806 806 806 805 804 804 806 806 806 808 811 812 812 812 813 814 815 816 816 817
694 696 698 701 704 707 710 713 716 719 722 725 728 730 732 734 737 739 741 742 744 745 747 749 750 752 753 754 755 755 756 758 760 762 764 767 770 773 774 776 777 778 779 779 780 781 783 784 785 786 786 787 788 790 792 794 796 797 797 797 797 798 798 799 799 799 800 801 800 799 800 801 801 802 805 807 807 807 808 809 811 812 813 814 815
689 691 693 696 699 701 704 708 712 715 719 722 724 726 728 730 732 735 737 739 740 742 743 744 746 747 749 751 751 751 752 754 756 758 760 763 767 769 771 773 774 775 775 776 777 778 780 781 781 782 782 782 784 786 788 790 791 791 791 790 791 792 791 790 791 792 793 794 793 793 794 795 797 798 800 802 803 805 807 808 809 810 811 812 813
685 687 689 691 694 697 700 704 707 711 714 717 719 721 723 726 728 731 733 735 737 738 739 740 742 743 745 746 747 747 749 751 753 754 757 760 764 766 768 770 771 771 772 773 775 776 776 777 778 778 778 779 781 782 784 786 786 785 785 785 787 786 784 784 786 787 787 788 787 788 790 791 792 793 795 796 798 801 803 804 804 805 807 808 809
681 683 685 687 691 694 697 700 703 706 709 711 714 717 719 722 725 727 730 731 732 734 736 737 739 740 741 742 743 744 746 748 750 752 754 758 760 763 765 767 767 767 768 770 772 772 772 772 773 774 774 775 777 779 780 782 781 781 781 782 782 780 777 780 783 783 783 784 784 785 787 787 788 789 790 791 793 795 796 796 797 799 801 801 802
679 681 682 685 688 691 693 696 699 702 704 707 710 713 716 719 722 725 727 728 730 732 734 735 736 737 738 739 740 741 743 745 748 749 752 755 757 759 762 763 762 763 765 767 767 767 767 767 768 769 769 771 774 775 776 777 776 776 777 778 776 772 772 776 779 777 777 778 778 780 780 781 783 784 785 787 789 789 790 790 791 792 793 794 796
677 679 681 682 685 687 690 693 696 698 701 704 707 710 713 716 719 721 724 726 728 730 732 733 733 734 735 737 738 739 741 743 745 747 749 752 754 756 758 757 757 759 762 762 761 761 761 762 763 765 766 768 770 771 771 771 771 772 773 772 768 765 768 771 770 769 770 771 771 773 774 776 778 779 779 781 782 782 783 783 784 784 785 788 790
674 677 678 680 682 684 686 689 692 695 698 701 704 707 710 712 715 718 720 723 725 727 729 730 730 731 733 734 735 737 738 740 742 744 747 749 751 753 753 752 753 756 757 756 756 755 756 759 761 762 764 765 766 766 766 765 766 767 766 763 760 761 765 766 764 765 767 767 768 769 770 770 771 771 772 772 772 773 774 775 775 776 777 780 782
671 673 675 677 679 681 684 687 690 693 696 699 702 704 707 710 712 715 718 720 722 724 725 726 728 729 730 731 733 734 736 738 739 741 744 745 747 748 747 747 749 752 752 752 751 752 754 756 758 758 759 759 760 761 760 761 762 761 759 757 758 759 762 762 762 763 763 764 765 764 763 762 761 761 761 762 762 763 764 764 766 767 768 770 773
668 669 671 673 675 678 681 684 687 690 693 696 699 701 704 707 710 712 714 717 718 720 722 723 725 726 727 729 730 731 733 735 736 738 740 741 742 742 743 744 746 748 748 747 747 749 751 753 753 754 754 755 755 755 756 756 756 755 754 755 756 757 759 759 758 757 757 758 758 756 753 751 751 750 750 750 750 751 752 753 755 758 760 762 764
666 667 668 670 672 675 678 681 684 687 690 693 696 699 702 704 707 709 711 713 715 717 718 720 722 723 725 726 727 729 730 732 733 735 736 736 737 738 739 741 742 743 743 743 744 746 747 748 749 749 749 750 750 750 750 750 750 750 750 751 752 754 754 751 749 750 751 750 748 745 742 743 745 745 745 745 747 749 749 749 750 751 753 755 757
666 666 668 669 671 673 676 679 682 684 687 690 693 696 699 702 704 707 708 710 712 713 715 717 719 720 722 723 725 727 728 729 731 731 731 732 732 734 735 736 737 739 739 739 740 742 743 744 745 745 745 745 745 744 744 745 745 745 745 745 747 747 745 742 742 743 743 740 737 734 733 734 736 738 740 744 748 749 750 750 750 751 752 753 755
666 667 668 669 671 673 675 678 681 683 686 689 691 694 697 699 702 704 705 707 709 711 713 715 716 718 720 721 722 724 726 727 728 727 727 728 729 731 732 732 733 734 735 735 737 739 740 741 741 742 742 742 742 741 741 740 740 740 740 739 740 739 737 736 737 736 734 731 727 725 725 727 729 731 735 737 739 740 743 746 749 751 753 754 755
667 667 668 670 671 673 675 677 680 683 685 688 690 693 695 697 699 701 703 705 706 708 711 712 714 716 717 718 720 722 723 724 724 725 726 726 727 729 729 730 731 732 733 734 735 736 737 737 738 739 739 739 739 738 737 736 736 735 734 734 733 731 730 730 730 729 727 724 721 719 719 722 725 727 728 730 731 733 736 740 743 747 751 753 754
668 668 669 670 671 673 675 677 680 682 685 687 689 691 693 695 697 698 700 702 704 706 709 710 712 713 714 716 718 720 721 722 722 724 725 725 726 727 728 729 730 731 732 733 733 734 734 735 735 736 736 736 735 734 732 731 730 729 728 727 726 725 724 725 724 723 721 718 714 713 714 716 718 718 720 722 724 726 730 734 737 742 748 751 753
669 670 670 671 672 673 675 678 679 681 684 686 688 690 692 693 695 697 699 701 703 705 707 709 711 712 713 714 716 717 719 721 722 723 724 725 726 727 728 729 729 730 730 731 731 732 732 731 731 732 731 731 730 729 727 726 725 724 723 721 720 719 719 719 717 714 713 710 707 707 709 713 715 716 717 717 717 719 723 727 732 739 744 747 749
670 670 671 671 672 673 675 677 679 680 683 685 687 690 692 694 695 697 698 700 702 704 706 708 710 711 712 714 716 717 719 721 722 723 724 725 726 727 727 728 728 728 729 729 729 730 729 729 729 729 729 729 728 726 725 724 723 721 719 717 716 715 714 713 710 708 706 703 701 701 705 709 712 713 714 714 714 715 717 719 723 729 734 737 739
670 671 671 672 673 673 675 677 678 680 682 684 686 689 692 695 697 698 700 701 702 703 705 708 710 711 712 714 716 718 719 721 722 723 724 724 725 726 726 727 727 727 727 727 727 728 728 729 729 729 728 728 727 725 724 722 721 718 716 714 712 711 709 707 704 703 701 698 696 696 698 699 701 702 703 704 705 708 710 712 714 717 719 723 727
671 671 672 672 673 674 675 676 678 680 683 684 686 688 691 695 699 702 703 703 704 706 707 709 711 712 713 715 716 718 719 720 722 722 723 724 725 725 725 726 726 726 726 726 726 727 728 729 729 728 728 727 726 724 723 721 719 716 714 711 708 706 704 700 698 697 696 692 690 689 688 688 689 691 692 692 694 696 699 703 706 707 709 713 717
673 673 673 673 673 674 676 677 678 681 683 686 687 689 690 694 698 702 705 706 707 708 710 712 713 714 715 716 717 718 719 720 721 722 723 723 724 724 724 725 725 725 725 725 726 726 727 727 727 727 726 725 724 722 721 719 717 714 712 708 704 701 699 696 694 692 689 686 683 681 679 679 679 680 681 682 684 686 689 692 696 699 703 707 711
675 675 675 674 675 676 677 678 680 682 684 687 689 691 693 694 697 701 704 706 708 710 712 714 715 716 716 718 718 719 720 721 722 722 723 723 723 724 724 724 724 724 725 725 725 726 726 726 725 725 724 722 721 719 718 716 714 711 708 705 701 698 695 692 690 686 681 679 677 674 672 671 671 672 673 674 676 678 680 683 687 691 695 701 705
677 677 677 677 677 678 680 681 682 683 686 688 690 693 695 697 699 701 704 706 708 711 714 716 717 718 718 719 720 721 722 722 723 724 724 723 724 723 723 723 724 724 725 725 725 725 726 725 725 724 722 721 719 717 715 713 710 707 704 701 697 694 691 687 684 680 676 673 670 667 665 664 662 662 662 663 665 666 667 669 674 680 685 691 697
679 679 680 680 680 681 682 684 685 686 687 690 692 695 697 698 700 703 705 707 709 712 714 716 718 719 719 719 720 721 722 722 723 722 722 722 723 723 722 723 723 724 725 725 726 726 726 725 724 723 721 720 717 715 713 711 707 704 701 697 693 688 685 681 677 674 671 667 662 659 657 656 655 654 653 653 654 657 657 658 661 667 674 681 688
681 682 683 683 684 684 685 686 687 689 690 692 694 697 699 700 702 703 706 708 710 712 715 717 718 718 719 719 720 721 721 721 722 722 722 723 723 723 723 723 724 724 725 725 726 726 725 724 723 722 720 718 716 714 711 708 705 701 697 693 688 683 678 673 670 667 664 660 656 653 651 648 647 647 645 644 645 648 652 654 656 660 667 674 680
683 684 685 686 687 688 688 689 690 691 692 694 695 697 699 701 703 704 706 708 710 713 715 717 718 718 719 720 720 721 721 722 723 723 723 724 723 723 724 724 725 726 726 726 726 725 723 722 721 720 719 717 715 712 709 706 703 699 694 689 684 678 672 667 663 659 656 652 649 648 646 643 640 640 638 637 637 638 641 643 646 652 661 668 674
685 686 687 688 689 690 691 691 692 693 694 695 697 699 701 702 703 705 707 709 711 713 715 717 718 719 720 721 721 722 722 723 723 723 724 724 724 725 726 726 726 726 726 725 724 723 722 721 720 719 717 715 713 710 708 705 701 697 692 687 681 675 669 663 657 652 648 644 640 640 640 638 636 635 633 633 634 636 638 639 640 644 652 660 668
689 690 690 691 692 693 693 693 694 695 696 698 699 701 702 704 705 707 709 710 712 714 716 717 718 719 720 721 721 721 721 722 723 724 725 726 726 727 727 727 726 725 724 723 722 721 721 721 720 718 715 713 711 709 707 704 700 696 692 687 682 676 670 663 655 648 642 637 634 633 633 632 632 631 629 627 628 633 643 651 653 651 652 658 667
691 692 693 693 694 695 695 696 697 698 699 700 701 703 704 706 707 709 710 711 713 714 715 716 718 719 720 720 720 720 721 722 724 725 725 726 726 727 726 726 725 724 723 722 721 721 721 720 719 717 715 713 711 709 706 703 700 696 693 690 686 680 673 664 656 648 641 637 633 630 628 627 628 628 629 629 626 626 635 651 662 666 666 666 671
694 695 696 696 697 697 699 700 701 701 702 704 705 706 707 708 710 711 711 712 713 714 715 716 718 719 720 721 721 722 723 723 724 725 725 725 725 725 725 724 724 723 723 722 721 721 720 719 718 717 715 713 712 710 707 704 701 698 695 692 688 684 677 669 660 653 648 645 641 636 631 629 628 626 630 638 640 635 634 642 656 667 674 678 681
697 698 699 700 701 702 703 704 705 706 707 708 709 710 711 712 713 714 714 715 716 716 717 719 720 721 723 724 724 724 724 724 724 724 724 724 724 723 723 723 723 723 722 721 720 720 719 718 717 716 715 714 713 711 708 705 703 700 698 694 690 686 681 675 668 661 656 652 648 645 642 640 638 634 636 646 655 655 652 654 659 667 675 684 692
700 702 703 703 704 706 707 708 708 710 711 712 713 714 715 715 716 717 718 719 720 721 721 723 724 725 725 726 725 725 724 724 724 724 724 723 723 722 722 722 721 721 721 720 720 719 718 717 716 715 715 714 713 712 710 708 705 702 700 697 694 689 684 679 674 668 662 656 652 650 649 649 649 649 651 658 666 671 672 674 676 677 681 689 698
704 705 706 707 708 709 710 711 712 713 714 715 717 718 719 720 720 721 722 724 724 725 725 726 726 726 726 725 725 724 724 724 725 725 725 724 723 722 721 720 720 720 720 720 719 718 717 716 715 714 714 714 713 713 711 709 707 705 702 700 697 693 689 684 680 675 669 664 659 658 657 655 654 656 659 666 673 679 683 687 690 691 693 697 701
707 708 709 710 711 713 714 715 716 717 718 719 721 722 723 724 725 725 726 727 727 728 728 728 728 728 727 726 726 726 726 726 726 725 725 724 723 722 721 720 719 719 719 719 719 717 716 715 714 714 714 714 713 713 712 710 709 707 704 702 700 697 693 690 686 681 677 673 669 667 665 664 662 663 665 670 676 683 688 693 697 699 701 703 705
710 711 713 714 715 716 717 718 719 720 722 724 725 726 727 728 728 729 730 730 730 731 731 730 730 730 730 729 729 728 728 728 727 726 725 724 722 721 721 720 719 719 719 718 718 716 715 715 714 713 713 713 713 713 712 711 709 708 706 703 702 699 696 694 691 687 684 682 679 675 673 672 671 672 673 675 680 686 691 695 699 702 704 706 707
714 715 717 718 719 720 721 722 723 725 727 728 729 729 730 731 732 732 733 733 733 733 733 733 733 733 732 732 732 731 730 729 727 726 725 724 722 721 720 719 719 719 719 718 717 716 715 715 714 713 713 713 712 712 711 710 709 708 706 704 703 701 699 696 694 692 690 688 685 683 681 680 679 679 680 682 685 688 692 696 700 702 704 707 709
719 720 721 722 723 725 726 727 728 730 731 732 733 733 734 735 736 736 736 736 736 737 737 737 737 736 736 735 735 733 732 730 728 727 726 725 723 722 721 719 719 719 718 717 717 716 716 715 715 714 713 712 711 711 710 710 709 707 706 704 703 702 700 699 697 696 695 693 691 689 687 686 685 686 686 687 689 691 694 696 699 702 704 707 709
724 725 726 727 728 730 731 732 733 734 735 736 736 737 738 739 739 740 740 740 740 740 741 741 740 740 739 738 738 736 735 733 731 729 728 726 725 723 722 721 720 718 717 716 716 716 716 715 714 713 713 712 711 710 710 709 708 707 706 704 703 702 701 700 699 698 697 696 695 694 693 692 692 692 692 693 694 696 697 698 700 702 704 706 708
729 730 731 732 733 734 735 736 737 738 739 740 740 741 741 742 742 743 743 743 744 744 743 743 743 742 742 741 740 739 737 735 734 732 730 729 727 725 723 722 721 719 718 717 716 716 715 714 713 712 711 711 710 710 709 708 708 707 706 705 704 703 702 701 701 700 699 698 698 697 697 697 697 697 697 698 698 699 700 701 702 703 704 706 708